Date String (YYYY-MM-DD hh:mm:ss) UTC,Instrument flags,absolute air pressure of the measurement (hPa),sample flow rate (lpm),inlet stack bypass flow (lpm),air temperature of the measurement (°C),ambient temperature measured by the external sensor (°C),aerosol sample conditioner tube jacket temperature (°C),OPC LED temperature (°C),internal box temperature (°C),relative humidity of the measurement (%),span deviation,mass concentration of particles derived from Lorenz-Mie calculation of OPC scattering (μg/m³),mass concentration of particles derived from Lorenz-Mie calculation of OPC scattering (μg/m³),mass concentration of particles derived from Lorenz-Mie calculation of OPC scattering (μg/m³)
DateTimeUTC,F1_M11,P_M11,Q1_M11,Q2_M11,T1_M11,T2_M11,T3_M11,T4_M11,T5_M11,U1_M11,ZSPAN_M11,X0_M11,X2_M11,X1_M11
2024-02-29 21:00:00,SystemResetWarning,0823.3,5.00,000.00,024.4,023.7,000.0,032.4,026.1,05.3,0000.0,0007.16,0002.83,0001.61
2024-02-29 21:01:00,SystemResetWarning,0823.2,5.00,000.00,024.4,023.8,000.0,032.4,026.1,05.5,0000.0,0006.94,0002.81,0001.63
2024-02-29 21:02:00,SystemResetWarning,0823.1,4.99,000.00,024.4,023.8,000.0,032.4,026.1,05.4,0000.0,0006.86,0002.73,0001.61
2024-02-29 21:03:00,SystemResetWarning,0823.2,5.00,000.00,024.4,023.8,000.0,032.5,026.1,05.4,0000.0,0007.39,0002.73,0001.59
2024-02-29 21:04:00,SystemResetWarning,0823.2,5.01,000.00,024.4,023.8,000.0,032.5,026.1,05.4,0000.0,0007.43,0002.75,0001.56
2024-02-29 21:05:00,SystemResetWarning,0823.2,5.01,000.00,024.4,023.8,000.0,032.5,026.1,05.4,0000.0,0007.31,0002.80,0001.57
2024-02-29 21:06:00,SystemResetWarning,0823.1,5.00,000.00,024.4,023.8,000.0,032.5,026.1,05.4,0000.0,0006.95,0002.87,0001.59
2024-02-29 21:07:00,SystemResetWarning,0823.1,5.00,000.00,024.4,023.8,000.0,032.5,026.2,05.3,0000.0,0006.98,0002.88,0001.58
2024-02-29 21:08:00,SystemResetWarning,0823.1,5.00,000.00,024.5,023.8,000.0,032.5,026.2,05.3,0000.0,0006.38,0002.88,0001.57
2024-02-29 21:09:00,SystemResetWarning,0823.1,5.00,000.00,024.5,023.8,000.0,032.5,026.2,05.4,0000.0,0006.16,0002.83,0001.55
2024-02-29 21:10:00,SystemResetWarning,0823.0,5.00,000.00,024.5,023.8,000.0,032.6,026.2,05.4,0000.0,0006.06,0002.76,0001.50
2024-02-29 21:11:00,SystemResetWarning,0823.1,5.00,000.00,024.5,023.8,000.0,032.6,026.2,05.3,0000.0,0005.91,0002.69,0001.46
2024-02-29 21:12:00,SystemResetWarning,0823.1,5.00,000.00,024.5,023.8,000.0,032.6,026.2,05.5,0000.0,0005.92,0002.64,0001.43
2024-02-29 21:13:00,SystemResetWarning,0823.1,5.00,000.00,024.5,023.9,000.0,032.6,026.3,05.5,0000.0,0005.83,0002.60,0001.41
2024-02-29 21:14:00,SystemResetWarning,0823.1,4.99,000.00,024.5,023.9,000.0,032.6,026.3,05.4,0000.0,0004.86,0002.51,0001.40
2024-02-29 21:15:00,SystemResetWarning,0823.1,4.99,000.00,024.5,023.9,000.0,032.6,026.3,05.3,0000.0,0004.79,0002.50,0001.39
2024-02-29 21:16:00,SystemResetWarning,0823.0,4.99,000.00,024.5,023.9,000.0,032.6,026.3,05.3,0000.0,0004.68,0002.46,0001.39
2024-02-29 21:17:00,SystemResetWarning,0823.1,5.00,000.00,024.6,023.9,000.0,032.6,026.3,05.3,0000.0,0004.60,0002.43,0001.39
2024-02-29 21:18:00,SystemResetWarning,0823.0,5.00,000.00,024.6,023.9,000.0,032.6,026.3,05.2,0000.0,0004.78,0002.49,0001.38
2024-02-29 21:19:00,SystemResetWarning,0823.0,5.00,000.00,024.6,023.9,000.0,032.6,026.3,05.4,0000.0,0004.82,0002.55,0001.39
2024-02-29 21:20:00,SystemResetWarning,0823.0,5.00,000.00,024.6,023.9,000.0,032.7,026.3,05.3,0000.0,0004.73,0002.53,0001.39
2024-02-29 21:21:00,SystemResetWarning,0823.0,5.00,000.00,024.6,023.9,000.0,032.7,026.3,05.2,0000.0,0004.81,0002.59,0001.41
2024-02-29 21:22:00,SystemResetWarning,0823.0,5.00,000.00,024.6,024.0,000.0,032.7,026.4,05.2,0000.0,0005.20,0002.69,0001.44
2024-02-29 21:23:00,SystemResetWarning,0823.0,5.01,000.00,024.6,024.0,000.0,032.7,026.4,05.3,0000.0,0005.16,0002.68,0001.45
2024-02-29 21:24:00,SystemResetWarning,0823.0,4.99,000.00,024.6,024.0,000.0,032.7,026.4,05.4,0000.0,0005.26,0002.73,0001.47
2024-02-29 21:25:00,SystemResetWarning,0823.0,4.99,000.00,024.7,024.0,000.0,032.7,026.3,05.3,0000.0,0005.67,0002.82,0001.49
2024-02-29 21:26:00,SystemResetWarning,0823.1,5.01,000.00,024.7,024.0,000.0,032.7,026.4,05.2,0000.0,0005.62,0002.80,0001.49
2024-02-29 21:27:00,SystemResetWarning,0823.0,5.00,000.00,024.7,024.0,000.0,032.7,026.4,05.3,0000.0,0005.37,0002.70,0001.48
2024-02-29 21:28:00,SystemResetWarning,0823.0,5.01,000.00,024.7,024.0,000.0,032.8,026.4,05.4,0000.0,0005.51,0002.72,0001.45
2024-02-29 21:29:00,SystemResetWarning,0823.1,4.99,000.00,024.7,024.0,000.0,032.8,026.4,05.4,0000.0,0005.58,0002.72,0001.46
2024-02-29 21:30:00,SystemResetWarning,0823.0,5.00,000.00,024.7,024.0,000.0,032.8,026.4,05.4,0000.0,0005.63,0002.71,0001.47
2024-02-29 21:31:00,SystemResetWarning,0823.1,5.00,000.00,024.7,024.0,000.0,032.8,026.4,05.5,0000.0,0005.77,0002.79,0001.48
2024-02-29 21:32:00,SystemResetWarning,0823.0,5.01,000.00,024.7,024.0,000.0,032.8,026.4,05.4,0000.0,0005.91,0002.83,0001.49
2024-02-29 21:33:00,SystemResetWarning,0823.0,5.00,000.00,024.7,024.1,000.0,032.8,026.4,05.4,0000.0,0005.93,0002.87,0001.50
2024-02-29 21:34:00,SystemResetWarning,0823.1,4.99,000.00,024.7,024.1,000.0,032.8,026.5,05.3,0000.0,0005.97,0002.92,0001.52
2024-02-29 21:35:00,SystemResetWarning,0823.0,4.99,000.00,024.8,024.1,000.0,032.8,026.5,05.4,0000.0,0005.84,0002.92,0001.54
2024-02-29 21:36:00,SystemResetWarning,0823.0,5.00,000.00,024.8,024.1,000.0,032.8,026.5,05.5,0000.0,0005.50,0002.86,0001.54
2024-02-29 21:37:00,SystemResetWarning,0823.0,5.01,000.00,024.8,024.1,000.0,032.8,026.5,05.4,0000.0,0005.68,0002.91,0001.55
2024-02-29 21:38:00,SystemResetWarning,0822.9,5.00,000.00,024.8,024.1,000.0,032.9,026.5,05.3,0000.0,0005.72,0002.90,0001.55
2024-02-29 21:39:00,SystemResetWarning,0822.9,5.00,000.00,024.8,024.1,000.0,032.9,026.5,05.3,0000.0,0005.42,0002.80,0001.55
2024-02-29 21:40:00,SystemResetWarning,0823.0,5.01,000.00,024.8,024.1,000.0,032.9,026.5,05.1,0000.0,0005.41,0002.78,0001.55
2024-02-29 21:41:00,SystemResetWarning,0823.0,5.00,000.00,024.8,024.2,000.0,032.9,026.6,05.2,0000.0,0005.55,0002.83,0001.55
2024-02-29 21:42:00,SystemResetWarning,0823.0,5.00,000.00,024.8,024.2,000.0,032.9,026.6,05.4,0000.0,0005.66,0002.85,0001.55
2024-02-29 21:43:00,SystemResetWarning,0823.0,5.00,000.00,024.9,024.2,000.0,032.9,026.6,05.3,0000.0,0005.68,0002.85,0001.55
2024-02-29 21:44:00,SystemResetWarning,0823.0,4.99,000.00,024.9,024.2,000.0,032.9,026.6,05.2,0000.0,0005.57,0002.82,0001.55
2024-02-29 21:45:00,SystemResetWarning,0823.0,4.99,000.00,024.9,024.2,000.0,033.0,026.6,05.3,0000.0,0006.12,0002.77,0001.56
2024-02-29 21:46:00,SystemResetWarning,0822.9,5.01,000.00,024.9,024.2,000.0,033.0,026.6,05.3,0000.0,0006.38,0002.80,0001.56
2024-02-29 21:47:00,SystemResetWarning,0822.9,5.01,000.00,024.9,024.2,000.0,033.0,026.7,05.1,0000.0,0006.60,0002.80,0001.56
2024-02-29 21:48:00,SystemResetWarning,0822.9,4.99,000.00,024.9,024.2,000.0,033.0,026.7,05.2,0000.0,0006.95,0002.90,0001.57
2024-02-29 21:49:00,SystemResetWarning,0823.0,4.99,000.00,024.9,024.2,000.0,033.0,026.7,05.2,0000.0,0006.89,0002.88,0001.58
2024-02-29 21:50:00,SystemResetWarning,0822.9,5.01,000.00,024.9,024.3,000.0,033.0,026.6,05.3,0000.0,0006.93,0002.95,0001.60
2024-02-29 21:51:00,SystemResetWarning,0822.9,5.01,000.00,024.9,024.3,000.0,033.0,026.7,05.3,0000.0,0006.96,0003.00,0001.60
2024-02-29 21:52:00,SystemResetWarning,0823.0,5.00,000.00,025.0,024.3,000.0,033.0,026.7,05.4,0000.0,0006.93,0003.02,0001.59
2024-02-29 21:53:00,SystemResetWarning,0823.0,4.99,000.00,025.0,024.3,000.0,033.1,026.7,05.3,0000.0,0006.82,0002.94,0001.59
2024-02-29 21:54:00,SystemResetWarning,0823.0,4.99,000.00,025.0,024.3,000.0,033.1,026.7,05.3,0000.0,0006.79,0002.93,0001.57
2024-02-29 21:55:00,SystemResetWarning,0822.9,5.00,000.00,025.0,024.3,000.0,033.1,026.7,05.1,0000.0,0006.85,0002.90,0001.54
2024-02-29 21:56:00,SystemResetWarning,0822.9,5.00,000.00,025.0,024.3,000.0,033.1,026.7,05.2,0000.0,0007.02,0002.83,0001.51
2024-02-29 21:57:00,SystemResetWarning,0822.9,5.01,000.00,025.0,024.3,000.0,033.1,026.7,05.3,0000.0,0007.35,0002.78,0001.48
2024-02-29 21:58:00,SystemResetWarning,0822.9,5.00,000.00,025.0,024.3,000.0,033.1,026.7,05.2,0000.0,0007.09,0002.72,0001.44
2024-02-29 21:59:00,SystemResetWarning,0822.9,4.98,000.00,025.0,024.3,000.0,033.1,026.7,05.3,0000.0,0006.67,0002.63,0001.41
